Welcome to Des Moines Iowa Weather. I am an independent private personal weather station on the Northwest Side of Des Moines, Iowa. Just East of Windsor Heights and just West of Glendale . This site is also mobile friendly.

There are no active watches, warnings or advisories


Visit our other weather sites:

Historical Data

Weather Station Setup



Weather Underground History page Text

Daily Summary for January 12, 2017 Units:  English    Metric   Both
« Previous Day
Next Day »
Daily Weekly Monthly Yearly Custom
  High: Low: Average:
Temperature: 21.5 °F 11.8 °F 16 °F
Dew Point: 12.0 °F 6.0 °F 8.5 °F
Humidity: 83 % 54 % 73 %
Wind Speed: 12.0 mph 0.0 mph 2.7 mph
Wind Gust: 15.0 mph - -
Wind:- - WSW
Pressure: 30.67 in 29.99 in -
Precipitation: 0.00 in    
Historical Graphs
 
 
Tabular Data for January 12, 2017
Time Temperature Dew Point Pressure Wind Wind Speed Wind Gust Humidity Rainfall Rate (Hourly)
00:00 13.3 °F 8.0 °F 30.01 in NNE 4.0 mph 13.0 mph 79 % 0.00 in
00:05 13.3 °F 8.0 °F 30.01 in NNE 4.0 mph 13.0 mph 79 % 0.00 in
00:10 13.3 °F 8.0 °F 30.01 in NE 3.0 mph 9.0 mph 79 % 0.00 in
00:12 13.0 °F 8.0 °F 29.99 in NE 3.0 mph 11.0 mph 80 % 0.00 in
00:15 13.3 °F 8.0 °F 30.01 in NE 3.0 mph 9.0 mph 79 % 0.00 in
00:20 13.3 °F 8.0 °F 30.01 in NE 3.0 mph 9.0 mph 79 % 0.00 in
00:25 13.1 °F 7.8 °F 30.00 in NE 3.0 mph 11.0 mph 79 % 0.00 in
00:28 12.7 °F 8.0 °F 29.99 in East 3.0 mph 10.0 mph 80 % 0.00 in
00:30 13.1 °F 7.8 °F 30.00 in NE 3.0 mph 11.0 mph 79 % 0.00 in
00:35 13.1 °F 7.8 °F 30.00 in NE 3.0 mph 11.0 mph 79 % 0.00 in
00:40 12.8 °F 7.5 °F 30.00 in NW 4.0 mph 11.0 mph 79 % 0.00 in
00:43 12.5 °F 8.0 °F 29.99 in NNW 3.0 mph 12.0 mph 81 % 0.00 in
00:45 12.8 °F 7.5 °F 30.00 in NW 4.0 mph 11.0 mph 79 % 0.00 in
00:50 12.8 °F 7.5 °F 30.00 in NW 4.0 mph 11.0 mph 79 % 0.00 in
00:55 12.5 °F 7.5 °F 30.00 in NE 4.0 mph 12.0 mph 80 % 0.00 in
00:58 12.5 °F 8.0 °F 30.00 in NW 2.0 mph 8.0 mph 81 % 0.00 in
01:00 12.5 °F 7.5 °F 30.00 in NE 4.0 mph 12.0 mph 80 % 0.00 in
01:05 12.5 °F 7.5 °F 30.00 in NE 4.0 mph 12.0 mph 80 % 0.00 in
01:10 12.5 °F 7.5 °F 30.01 in ENE 3.0 mph 8.0 mph 80 % 0.00 in
01:13 12.6 °F 8.0 °F 30.01 in NNE 2.0 mph 9.0 mph 81 % 0.00 in
01:15 12.5 °F 7.5 °F 30.01 in ENE 3.0 mph 8.0 mph 80 % 0.00 in
01:20 12.5 °F 7.5 °F 30.01 in ENE 3.0 mph 8.0 mph 80 % 0.00 in
01:25 12.6 °F 7.6 °F 30.01 in NNE 2.0 mph 8.0 mph 80 % 0.00 in
01:28 12.8 °F 8.0 °F 30.00 in NNE 3.0 mph 9.0 mph 80 % 0.00 in
01:30 12.6 °F 7.6 °F 30.01 in NNE 2.0 mph 8.0 mph 80 % 0.00 in
01:35 12.6 °F 7.6 °F 30.01 in NNE 2.0 mph 8.0 mph 80 % 0.00 in
01:40 12.8 °F 7.8 °F 30.00 in NNE 3.0 mph 11.0 mph 80 % 0.00 in
01:43 12.7 °F 8.0 °F 30.01 in WNW 2.0 mph 8.0 mph 81 % 0.00 in
01:45 12.8 °F 7.8 °F 30.00 in NNE 3.0 mph 11.0 mph 80 % 0.00 in
01:50 12.8 °F 7.8 °F 30.00 in NNE 3.0 mph 11.0 mph 80 % 0.00 in
01:55 12.8 °F 7.8 °F 30.01 in NE 3.0 mph 8.0 mph 80 % 0.00 in
01:58 12.6 °F 8.0 °F 30.01 in NNW 5.0 mph 11.0 mph 80 % 0.00 in
02:00 12.8 °F 7.8 °F 30.01 in NE 3.0 mph 8.0 mph 80 % 0.00 in
02:05 12.8 °F 7.8 °F 30.01 in NE 3.0 mph 8.0 mph 80 % 0.00 in
02:10 12.6 °F 7.3 °F 30.02 in NW 3.0 mph 11.0 mph 79 % 0.00 in
02:13 12.5 °F 7.0 °F 30.05 in Calm   10.0 mph 80 % 0.00 in
02:15 12.6 °F 7.3 °F 30.02 in NW 3.0 mph 11.0 mph 79 % 0.00 in
02:20 12.6 °F 7.3 °F 30.02 in NW 3.0 mph 11.0 mph 79 % 0.00 in
02:25 12.5 °F 7.2 °F 30.06 in NNE 3.0 mph 10.0 mph 79 % 0.00 in
02:28 12.4 °F 7.0 °F 30.08 in Calm   6.0 mph 80 % 0.00 in
02:30 12.5 °F 7.2 °F 30.06 in NNE 3.0 mph 10.0 mph 79 % 0.00 in
02:35 12.5 °F 7.2 °F 30.06 in NNE 3.0 mph 10.0 mph 79 % 0.00 in
02:40 12.4 °F 7.2 °F 30.09 in NNE 1.0 mph 8.0 mph 79 % 0.00 in
02:43 12.3 °F 7.0 °F 30.08 in NW 3.0 mph 5.0 mph 80 % 0.00 in
02:45 12.4 °F 7.2 °F 30.09 in NNE 1.0 mph 8.0 mph 79 % 0.00 in
02:50 12.4 °F 7.2 °F 30.09 in NNE 1.0 mph 8.0 mph 79 % 0.00 in
02:55 12.3 °F 7.1 °F 30.08 in NW 2.0 mph 7.0 mph 79 % 0.00 in
02:58 12.2 °F 7.0 °F 30.08 in WNW 4.0 mph 7.0 mph 81 % 0.00 in
03:00 12.3 °F 7.1 °F 30.08 in NW 2.0 mph 7.0 mph 79 % 0.00 in
03:05 12.3 °F 7.1 °F 30.08 in NW 2.0 mph 7.0 mph 79 % 0.00 in
03:10 12.3 °F 7.3 °F 30.09 in WNW 3.0 mph 7.0 mph 80 % 0.00 in
03:13 12.1 °F 7.0 °F 30.09 in WNW 4.0 mph 10.0 mph 81 % 0.00 in
03:15 12.3 °F 7.3 °F 30.09 in WNW 3.0 mph 7.0 mph 80 % 0.00 in
03:20 12.3 °F 7.3 °F 30.09 in WNW 3.0 mph 7.0 mph 80 % 0.00 in
03:25 12.2 °F 7.2 °F 30.09 in NW 3.0 mph 10.0 mph 80 % 0.00 in
03:28 11.9 °F 7.0 °F 30.10 in NNE 9.0 mph 12.0 mph 82 % 0.00 in
03:30 12.2 °F 7.2 °F 30.09 in NW 3.0 mph 10.0 mph 80 % 0.00 in
03:35 12.2 °F 7.2 °F 30.09 in NW 3.0 mph 10.0 mph 80 % 0.00 in
03:40 12.0 °F 7.3 °F 30.10 in WNW 4.0 mph 12.0 mph 81 % 0.00 in
03:43 11.8 °F 8.0 °F 30.09 in NW 2.0 mph 5.0 mph 83 % 0.00 in
03:45 12.0 °F 7.3 °F 30.10 in WNW 4.0 mph 12.0 mph 81 % 0.00 in
03:50 12.0 °F 7.3 °F 30.10 in WNW 4.0 mph 12.0 mph 81 % 0.00 in
03:55 11.8 °F 7.1 °F 30.09 in NW 2.0 mph 10.0 mph 81 % 0.00 in
03:58 11.9 °F 8.0 °F 30.08 in NW 4.0 mph 6.0 mph 83 % 0.00 in
04:00 11.8 °F 7.1 °F 30.09 in NW 2.0 mph 10.0 mph 81 % 0.00 in
04:05 11.8 °F 7.1 °F 30.09 in NW 2.0 mph 10.0 mph 81 % 0.00 in
04:10 11.9 °F 7.5 °F 30.09 in NW 3.0 mph 9.0 mph 82 % 0.00 in
04:13 12.1 °F 8.0 °F 30.10 in NNW 3.0 mph 9.0 mph 83 % 0.00 in
04:15 11.9 °F 7.5 °F 30.09 in NW 3.0 mph 9.0 mph 82 % 0.00 in
04:20 11.9 °F 7.5 °F 30.09 in NW 3.0 mph 9.0 mph 82 % 0.00 in
04:25 12.1 °F 7.7 °F 30.10 in NW 3.0 mph 9.0 mph 82 % 0.00 in
04:28 12.3 °F 8.0 °F 30.12 in North 2.0 mph 9.0 mph 83 % 0.00 in
04:30 12.1 °F 7.7 °F 30.10 in NW 3.0 mph 9.0 mph 82 % 0.00 in
04:35 12.1 °F 7.7 °F 30.10 in NW 3.0 mph 9.0 mph 82 % 0.00 in
04:40 12.2 °F 7.8 °F 30.13 in NW 3.0 mph 9.0 mph 82 % 0.00 in
04:43 12.3 °F 8.0 °F 30.13 in NW 3.0 mph 10.0 mph 82 % 0.00 in
04:45 12.2 °F 7.8 °F 30.13 in NW 3.0 mph 9.0 mph 82 % 0.00 in
04:50 12.2 °F 7.8 °F 30.13 in NW 3.0 mph 9.0 mph 82 % 0.00 in
04:55 12.3 °F 7.6 °F 30.14 in NW 4.0 mph 10.0 mph 81 % 0.00 in
04:58 12.2 °F 7.0 °F 30.13 in NW 3.0 mph 9.0 mph 81 % 0.00 in
05:00 12.3 °F 7.6 °F 30.14 in NW 4.0 mph 10.0 mph 81 % 0.00 in
05:05 12.3 °F 7.6 °F 30.14 in NW 4.0 mph 10.0 mph 81 % 0.00 in
05:10 12.2 °F 7.2 °F 30.13 in NW 4.0 mph 12.0 mph 80 % 0.00 in
05:13 12.1 °F 7.0 °F 30.12 in North 6.0 mph 8.0 mph 81 % 0.00 in
05:15 12.2 °F 7.2 °F 30.13 in NW 4.0 mph 12.0 mph 80 % 0.00 in
05:20 12.2 °F 7.2 °F 30.13 in NW 4.0 mph 12.0 mph 80 % 0.00 in
05:25 12.1 °F 7.1 °F 30.13 in NW 3.0 mph 9.0 mph 80 % 0.00 in
05:28 12.0 °F 7.0 °F 30.14 in NW 5.0 mph 9.0 mph 81 % 0.00 in
05:30 12.1 °F 7.1 °F 30.13 in NW 3.0 mph 9.0 mph 80 % 0.00 in
05:35 12.1 °F 7.1 °F 30.13 in NW 3.0 mph 9.0 mph 80 % 0.00 in
05:40 12.1 °F 7.1 °F 30.14 in NW 3.0 mph 10.0 mph 80 % 0.00 in
05:45 12.1 °F 7.0 °F 30.15 in ENE 2.0 mph 9.0 mph 81 % 0.00 in
05:50 12.1 °F 7.1 °F 30.14 in NW 3.0 mph 10.0 mph 80 % 0.00 in
05:55 12.0 °F 7.0 °F 30.15 in NW 3.0 mph 10.0 mph 80 % 0.00 in
05:58 12.1 °F 7.0 °F 30.15 in NNE 5.0 mph 8.0 mph 81 % 0.00 in
06:00 12.0 °F 7.0 °F 30.15 in NW 3.0 mph 10.0 mph 80 % 0.00 in
06:05 12.0 °F 7.0 °F 30.15 in NW 3.0 mph 10.0 mph 80 % 0.00 in
06:10 12.1 °F 7.1 °F 30.15 in NW 3.0 mph 8.0 mph 80 % 0.00 in
06:13 12.1 °F 7.0 °F 30.16 in WNW 2.0 mph 3.0 mph 81 % 0.00 in
06:15 12.1 °F 7.1 °F 30.15 in NW 3.0 mph 8.0 mph 80 % 0.00 in
06:20 12.1 °F 7.1 °F 30.15 in NW 3.0 mph 8.0 mph 80 % 0.00 in
06:25 12.1 °F 7.1 °F 30.16 in WNW 2.0 mph 10.0 mph 80 % 0.00 in
06:28 12.3 °F 8.0 °F 30.17 in WNW 3.0 mph 5.0 mph 81 % 0.00 in
06:30 12.1 °F 7.1 °F 30.16 in WNW 2.0 mph 10.0 mph 80 % 0.00 in
06:35 12.1 °F 7.1 °F 30.16 in WNW 2.0 mph 10.0 mph 80 % 0.00 in
06:40 12.2 °F 7.2 °F 30.17 in WNW 2.0 mph 7.0 mph 80 % 0.00 in
06:43 12.3 °F 8.0 °F 30.16 in NW 5.0 mph 9.0 mph 81 % 0.00 in
06:45 12.2 °F 7.2 °F 30.17 in WNW 2.0 mph 7.0 mph 80 % 0.00 in
06:50 12.2 °F 7.2 °F 30.17 in WNW 2.0 mph 7.0 mph 80 % 0.00 in
06:55 12.4 °F 7.4 °F 30.17 in NW 3.0 mph 9.0 mph 80 % 0.00 in
06:58 12.2 °F 7.0 °F 30.18 in Calm   8.0 mph 81 % 0.00 in
07:00 12.4 °F 7.4 °F 30.17 in NW 3.0 mph 9.0 mph 80 % 0.00 in
07:05 12.4 °F 7.4 °F 30.17 in NW 3.0 mph 9.0 mph 80 % 0.00 in
07:10 12.3 °F 7.3 °F 30.18 in NW 3.0 mph 8.0 mph 80 % 0.00 in
07:13 12.4 °F 8.0 °F 30.18 in NNW 2.0 mph 3.0 mph 82 % 0.00 in
07:15 12.3 °F 7.3 °F 30.18 in NW 3.0 mph 8.0 mph 80 % 0.00 in
07:20 12.3 °F 7.3 °F 30.18 in NW 3.0 mph 8.0 mph 80 % 0.00 in
07:25 12.3 °F 7.6 °F 30.19 in NW 1.0 mph 8.0 mph 81 % 0.00 in
07:28 12.4 °F 8.0 °F 30.21 in NW 5.0 mph 9.0 mph 82 % 0.00 in
07:30 12.3 °F 7.6 °F 30.19 in NW 1.0 mph 8.0 mph 81 % 0.00 in
07:35 12.3 °F 7.6 °F 30.19 in NW 1.0 mph 8.0 mph 81 % 0.00 in
07:40 12.4 °F 7.7 °F 30.21 in NW 3.0 mph 9.0 mph 81 % 0.00 in
07:43 12.2 °F 7.0 °F 30.23 in NW 3.0 mph 6.0 mph 81 % 0.00 in
07:45 12.4 °F 7.7 °F 30.21 in NW 3.0 mph 9.0 mph 81 % 0.00 in
07:50 12.4 °F 7.7 °F 30.21 in NW 3.0 mph 9.0 mph 81 % 0.00 in
07:55 12.4 °F 7.4 °F 30.23 in NW 3.0 mph 8.0 mph 80 % 0.00 in
07:59 11.9 °F 7.0 °F 30.23 in North 1.0 mph 9.0 mph 82 % 0.00 in
08:00 12.4 °F 7.4 °F 30.23 in NW 3.0 mph 8.0 mph 80 % 0.00 in
08:05 12.4 °F 7.4 °F 30.23 in NW 3.0 mph 8.0 mph 80 % 0.00 in
08:10 12.0 °F 7.3 °F 30.23 in NW 3.0 mph 9.0 mph 81 % 0.00 in
08:14 12.1 °F 8.0 °F 30.24 in NW 5.0 mph 9.0 mph 82 % 0.00 in
08:15 12.0 °F 7.3 °F 30.23 in NW 3.0 mph 9.0 mph 81 % 0.00 in
08:20 12.0 °F 7.3 °F 30.23 in NW 3.0 mph 9.0 mph 81 % 0.00 in
08:25 12.0 °F 7.3 °F 30.25 in NW 4.0 mph 9.0 mph 81 % 0.00 in
08:29 12.4 °F 8.0 °F 30.25 in NW 12.0 mph 12.0 mph 82 % 0.00 in
08:30 12.0 °F 7.3 °F 30.25 in NW 4.0 mph 9.0 mph 81 % 0.00 in
08:35 12.0 °F 7.3 °F 30.25 in NW 4.0 mph 9.0 mph 81 % 0.00 in
08:40 12.3 °F 7.6 °F 30.26 in NW 4.0 mph 12.0 mph 81 % 0.00 in
08:44 12.6 °F 8.0 °F 30.26 in NNW 5.0 mph 11.0 mph 81 % 0.00 in
08:45 12.3 °F 7.6 °F 30.26 in NW 4.0 mph 12.0 mph 81 % 0.00 in
08:50 12.3 °F 7.6 °F 30.26 in NW 4.0 mph 12.0 mph 81 % 0.00 in
08:55 12.4 °F 7.4 °F 30.26 in NW 4.0 mph 11.0 mph 80 % 0.00 in
08:59 12.9 °F 8.0 °F 30.26 in NW 4.0 mph 9.0 mph 80 % 0.00 in
09:00 12.4 °F 7.4 °F 30.26 in NW 4.0 mph 11.0 mph 80 % 0.00 in
09:05 12.4 °F 7.4 °F 30.26 in NW 4.0 mph 11.0 mph 80 % 0.00 in
09:10 12.7 °F 7.4 °F 30.27 in NW 3.0 mph 9.0 mph 79 % 0.00 in
09:14 13.2 °F 8.0 °F 30.30 in NW 4.0 mph 8.0 mph 79 % 0.00 in
09:15 12.7 °F 7.4 °F 30.27 in NW 3.0 mph 9.0 mph 79 % 0.00 in
09:20 12.7 °F 7.4 °F 30.27 in NW 3.0 mph 9.0 mph 79 % 0.00 in
09:25 13.0 °F 7.4 °F 30.30 in NW 3.0 mph 9.0 mph 78 % 0.00 in
09:29 13.6 °F 8.0 °F 30.31 in NW 4.0 mph 9.0 mph 77 % 0.00 in
09:30 13.0 °F 7.4 °F 30.30 in NW 3.0 mph 9.0 mph 78 % 0.00 in
09:35 13.0 °F 7.4 °F 30.30 in NW 3.0 mph 9.0 mph 78 % 0.00 in
09:40 13.5 °F 7.4 °F 30.31 in NW 3.0 mph 9.0 mph 76 % 0.00 in
09:44 13.9 °F 8.0 °F 30.32 in NW 2.0 mph 8.0 mph 76 % 0.00 in
09:45 13.5 °F 7.4 °F 30.31 in NW 3.0 mph 9.0 mph 76 % 0.00 in
09:50 13.5 °F 7.4 °F 30.31 in NW 3.0 mph 9.0 mph 76 % 0.00 in
09:55 13.8 °F 7.4 °F 30.33 in NW 3.0 mph 10.0 mph 75 % 0.00 in
09:59 14.1 °F 8.0 °F 30.34 in NW 3.0 mph 8.0 mph 75 % 0.00 in
10:00 13.8 °F 7.4 °F 30.33 in NW 3.0 mph 10.0 mph 75 % 0.00 in
10:05 13.8 °F 7.4 °F 30.33 in NW 3.0 mph 10.0 mph 75 % 0.00 in
10:10 14.0 °F 7.3 °F 30.34 in NW 3.0 mph 8.0 mph 74 % 0.00 in
10:14 14.4 °F 8.0 °F 30.33 in NW 3.0 mph 9.0 mph 74 % 0.00 in
10:15 14.0 °F 7.3 °F 30.34 in NW 3.0 mph 8.0 mph 74 % 0.00 in
10:20 14.0 °F 7.3 °F 30.34 in NW 3.0 mph 8.0 mph 74 % 0.00 in
10:25 14.3 °F 7.2 °F 30.34 in NW 3.0 mph 9.0 mph 73 % 0.00 in
10:29 14.9 °F 7.0 °F 30.35 in NNE 3.0 mph 6.0 mph 72 % 0.00 in
10:30 14.3 °F 7.2 °F 30.34 in NW 3.0 mph 9.0 mph 73 % 0.00 in
10:35 14.3 °F 7.2 °F 30.34 in NW 3.0 mph 9.0 mph 73 % 0.00 in
10:40 14.6 °F 6.9 °F 30.35 in NW 3.0 mph 8.0 mph 71 % 0.00 in
10:44 15.8 °F 8.0 °F 30.35 in WNW 9.0 mph 9.0 mph 70 % 0.00 in
10:45 14.6 °F 6.9 °F 30.35 in NW 3.0 mph 8.0 mph 71 % 0.00 in
10:50 14.6 °F 6.9 °F 30.35 in NW 3.0 mph 8.0 mph 71 % 0.00 in
10:55 15.3 °F 7.0 °F 30.35 in NW 4.0 mph 9.0 mph 69 % 0.00 in
10:59 16.4 °F 7.0 °F 30.36 in NW 9.0 mph 9.0 mph 67 % 0.00 in
11:00 15.3 °F 7.0 °F 30.35 in NW 4.0 mph 9.0 mph 69 % 0.00 in
11:05 15.3 °F 7.0 °F 30.35 in NW 4.0 mph 9.0 mph 69 % 0.00 in
11:10 16.1 °F 6.8 °F 30.36 in NW 3.0 mph 10.0 mph 66 % 0.00 in
11:14 17.0 °F 7.0 °F 30.38 in WNW 1.0 mph 10.0 mph 65 % 0.00 in
11:15 16.1 °F 6.8 °F 30.36 in NW 3.0 mph 10.0 mph 66 % 0.00 in
11:20 16.1 °F 6.8 °F 30.36 in NW 3.0 mph 10.0 mph 66 % 0.00 in
11:25 16.7 °F 6.7 °F 30.38 in NW 4.0 mph 11.0 mph 64 % 0.00 in
11:29 17.7 °F 7.0 °F 30.39 in NW 3.0 mph 8.0 mph 62 % 0.00 in
11:30 16.7 °F 6.7 °F 30.38 in NW 4.0 mph 11.0 mph 64 % 0.00 in
11:35 16.7 °F 6.7 °F 30.38 in NW 4.0 mph 11.0 mph 64 % 0.00 in
11:40 17.3 °F 6.2 °F 30.40 in NW 3.0 mph 8.0 mph 61 % 0.00 in
11:44 18.3 °F 6.0 °F 30.39 in NNW 5.0 mph 10.0 mph 60 % 0.00 in
11:45 17.3 °F 6.2 °F 30.40 in NW 3.0 mph 8.0 mph 61 % 0.00 in
11:50 17.3 °F 6.2 °F 30.40 in NW 3.0 mph 8.0 mph 61 % 0.00 in
11:55 18.1 °F 6.2 °F 30.40 in WNW 3.0 mph 10.0 mph 59 % 0.00 in
11:59 18.2 °F 6.0 °F 30.39 in NW 8.0 mph 12.0 mph 59 % 0.00 in
12:00 18.1 °F 6.2 °F 30.40 in WNW 3.0 mph 10.0 mph 59 % 0.00 in
12:05 18.1 °F 6.2 °F 30.40 in WNW 3.0 mph 10.0 mph 59 % 0.00 in
12:10 18.3 °F 6.0 °F 30.39 in NW 4.0 mph 12.0 mph 58 % 0.00 in
12:14 18.3 °F 7.0 °F 30.38 in WNW 4.0 mph 11.0 mph 62 % 0.00 in
12:15 18.3 °F 6.0 °F 30.39 in NW 4.0 mph 12.0 mph 58 % 0.00 in
12:20 18.3 °F 6.0 °F 30.39 in NW 4.0 mph 12.0 mph 58 % 0.00 in
12:25 18.1 °F 6.9 °F 30.38 in NW 5.0 mph 11.0 mph 61 % 0.00 in
12:29 18.9 °F 7.0 °F 30.37 in West 8.0 mph 8.0 mph 61 % 0.00 in
12:30 18.1 °F 6.9 °F 30.38 in NW 5.0 mph 11.0 mph 61 % 0.00 in
12:35 18.1 °F 6.9 °F 30.38 in NW 5.0 mph 11.0 mph 61 % 0.00 in
12:40 18.7 °F 7.1 °F 30.38 in WNW 3.0 mph 9.0 mph 60 % 0.00 in
12:44 19.0 °F 7.0 °F 30.38 in WNW 4.0 mph 13.0 mph 60 % 0.00 in
12:45 18.7 °F 7.1 °F 30.38 in WNW 3.0 mph 9.0 mph 60 % 0.00 in
12:50 18.7 °F 7.1 °F 30.38 in WNW 3.0 mph 9.0 mph 60 % 0.00 in
12:55 19.0 °F 7.1 °F 30.39 in NW 4.0 mph 13.0 mph 59 % 0.00 in
12:59 18.8 °F 8.0 °F 30.39 in NW 2.0 mph 14.0 mph 62 % 0.00 in
13:00 19.0 °F 7.1 °F 30.39 in NW 4.0 mph 13.0 mph 59 % 0.00 in
13:05 19.0 °F 7.1 °F 30.39 in NW 4.0 mph 13.0 mph 59 % 0.00 in
13:10 18.9 °F 7.7 °F 30.40 in NW 5.0 mph 14.0 mph 61 % 0.00 in
13:14 19.5 °F 7.0 °F 30.40 in North 12.0 mph 14.0 mph 58 % 0.00 in
13:15 18.9 °F 7.7 °F 30.40 in NW 5.0 mph 14.0 mph 61 % 0.00 in
13:20 18.9 °F 7.7 °F 30.40 in NW 5.0 mph 14.0 mph 61 % 0.00 in
13:25 19.2 °F 6.5 °F 30.41 in NW 6.0 mph 15.0 mph 57 % 0.00 in
13:30 20.0 °F 8.0 °F 30.41 in WNW 8.0 mph 10.0 mph 59 % 0.00 in
13:35 19.2 °F 6.5 °F 30.41 in NW 6.0 mph 15.0 mph 57 % 0.00 in
13:40 19.7 °F 7.3 °F 30.41 in NW 4.0 mph 11.0 mph 58 % 0.00 in
13:45 20.2 °F 7.0 °F 30.41 in NW 4.0 mph 13.0 mph 58 % 0.00 in
13:50 19.7 °F 7.3 °F 30.41 in NW 4.0 mph 11.0 mph 58 % 0.00 in
13:55 20.2 °F 7.4 °F 30.42 in NW 4.0 mph 14.0 mph 57 % 0.00 in
14:00 20.0 °F 7.0 °F 30.41 in NW 5.0 mph 9.0 mph 58 % 0.00 in
14:05 20.2 °F 7.4 °F 30.42 in NW 4.0 mph 14.0 mph 57 % 0.00 in
14:10 20.0 °F 7.2 °F 30.42 in NW 4.0 mph 12.0 mph 57 % 0.00 in
14:15 20.5 °F 7.0 °F 30.42 in NW 6.0 mph 14.0 mph 56 % 0.00 in
14:20 20.0 °F 7.2 °F 30.42 in NW 4.0 mph 12.0 mph 57 % 0.00 in
14:25 20.2 °F 6.7 °F 30.43 in NW 4.0 mph 14.0 mph 55 % 0.00 in
14:30 20.5 °F 7.0 °F 30.42 in WNW 3.0 mph 10.0 mph 57 % 0.00 in
14:35 20.2 °F 6.7 °F 30.43 in NW 4.0 mph 14.0 mph 55 % 0.00 in
14:40 20.5 °F 7.3 °F 30.43 in NW 4.0 mph 10.0 mph 56 % 0.00 in
14:45 20.9 °F 7.0 °F 30.42 in Calm   8.0 mph 56 % 0.00 in
14:50 20.5 °F 7.3 °F 30.43 in NW 4.0 mph 10.0 mph 56 % 0.00 in
14:55 20.7 °F 7.1 °F 30.43 in WNW 3.0 mph 9.0 mph 55 % 0.00 in
15:00 21.3 °F 8.0 °F 30.43 in NW 5.0 mph 6.0 mph 56 % 0.00 in
15:05 21.4 °F 7.0 °F 30.43 in NNW 4.0 mph 9.0 mph 55 % 0.00 in
15:10 21.1 °F 7.5 °F 30.43 in NW 3.0 mph 10.0 mph 55 % 0.00 in
15:15 21.1 °F 7.5 °F 30.43 in NW 3.0 mph 10.0 mph 55 % 0.00 in
15:20 21.5 °F 8.0 °F 30.44 in NW 2.0 mph 9.0 mph 55 % 0.00 in
15:25 21.4 °F 7.4 °F 30.45 in NW 4.0 mph 10.0 mph 54 % 0.00 in
15:30 21.4 °F 7.4 °F 30.45 in NW 4.0 mph 10.0 mph 54 % 0.00 in
15:35 21.5 °F 8.0 °F 30.45 in WNW 4.0 mph 9.0 mph 56 % 0.00 in
15:40 21.5 °F 7.9 °F 30.45 in NW 4.0 mph 9.0 mph 55 % 0.00 in
15:45 21.5 °F 7.9 °F 30.45 in NW 4.0 mph 9.0 mph 55 % 0.00 in
15:50 21.5 °F 8.0 °F 30.46 in NW 3.0 mph 9.0 mph 57 % 0.00 in
15:55 21.5 °F 7.9 °F 30.46 in NW 4.0 mph 9.0 mph 55 % 0.00 in
16:00 21.5 °F 7.9 °F 30.46 in NW 4.0 mph 9.0 mph 55 % 0.00 in
16:05 21.4 °F 9.0 °F 30.46 in NW 6.0 mph 10.0 mph 59 % 0.00 in
16:10 21.5 °F 8.6 °F 30.47 in NW 3.0 mph 9.0 mph 57 % 0.00 in
16:15 21.5 °F 8.6 °F 30.47 in NW 3.0 mph 9.0 mph 57 % 0.00 in
16:20 21.1 °F 9.0 °F 30.47 in WNW 5.0 mph 9.0 mph 60 % 0.00 in
16:25 21.4 °F 8.9 °F 30.47 in NW 4.0 mph 10.0 mph 58 % 0.00 in
16:30 21.4 °F 8.9 °F 30.47 in NW 4.0 mph 10.0 mph 58 % 0.00 in
16:35 20.9 °F 10.0 °F 30.47 in NW 2.0 mph 6.0 mph 62 % 0.00 in
16:40 21.1 °F 9.4 °F 30.48 in NW 3.0 mph 10.0 mph 60 % 0.00 in
16:45 21.1 °F 9.4 °F 30.48 in NW 3.0 mph 10.0 mph 60 % 0.00 in
16:50 20.8 °F 10.0 °F 30.48 in NNW 1.0 mph 4.0 mph 63 % 0.00 in
16:55 20.9 °F 9.9 °F 30.49 in NW 2.0 mph 5.0 mph 62 % 0.00 in
17:00 20.9 °F 9.9 °F 30.49 in NW 2.0 mph 5.0 mph 62 % 0.00 in
17:05 20.7 °F 10.0 °F 30.50 in NW 2.0 mph 4.0 mph 64 % 0.00 in
17:10 20.8 °F 10.2 °F 30.49 in NW 2.0 mph 4.0 mph 63 % 0.00 in
17:15 20.8 °F 10.2 °F 30.49 in NW 2.0 mph 4.0 mph 63 % 0.00 in
17:20 20.5 °F 10.0 °F 30.51 in NNE 2.0 mph 4.0 mph 65 % 0.00 in
17:25 20.7 °F 10.5 °F 30.51 in NW 2.0 mph 5.0 mph 64 % 0.00 in
17:30 20.7 °F 10.5 °F 30.51 in NW 2.0 mph 5.0 mph 64 % 0.00 in
17:35 20.5 °F 11.0 °F 30.54 in Calm   2.0 mph 66 % 0.00 in
17:40 20.6 °F 10.4 °F 30.53 in Calm   2.0 mph 64 % 0.00 in
17:45 20.6 °F 10.4 °F 30.53 in Calm   2.0 mph 64 % 0.00 in
17:50 20.6 °F 10.4 °F 30.53 in Calm   2.0 mph 64 % 0.00 in
17:51 20.5 °F 11.0 °F 30.54 in Calm   2.0 mph 66 % 0.00 in
17:55 20.5 °F 10.6 °F 30.55 in Calm   2.0 mph 65 % 0.00 in
18:00 20.5 °F 10.6 °F 30.55 in Calm   2.0 mph 65 % 0.00 in
18:05 20.4 °F 11.0 °F 30.54 in Calm   3.0 mph 67 % 0.00 in
18:10 20.5 °F 11.0 °F 30.54 in Calm   3.0 mph 66 % 0.00 in
18:15 20.5 °F 11.0 °F 30.54 in Calm   3.0 mph 66 % 0.00 in
18:20 20.5 °F 11.0 °F 30.54 in Calm   3.0 mph 66 % 0.00 in
18:21 20.3 °F 11.0 °F 30.55 in Calm   3.0 mph 67 % 0.00 in
18:25 20.4 °F 10.9 °F 30.55 in NNE 1.0 mph 3.0 mph 66 % 0.00 in
18:30 20.4 °F 10.9 °F 30.55 in NNE 1.0 mph 3.0 mph 66 % 0.00 in
18:35 20.4 °F 10.9 °F 30.55 in NNE 1.0 mph 3.0 mph 66 % 0.00 in
18:36 20.3 °F 11.0 °F 30.55 in NNE 1.0 mph 4.0 mph 68 % 0.00 in
18:40 20.3 °F 11.1 °F 30.56 in NNE 1.0 mph 4.0 mph 67 % 0.00 in
18:45 20.3 °F 11.1 °F 30.56 in NNE 1.0 mph 4.0 mph 67 % 0.00 in
18:50 20.3 °F 11.1 °F 30.56 in NNE 1.0 mph 4.0 mph 67 % 0.00 in
18:51 20.4 °F 12.0 °F 30.55 in Calm   2.0 mph 69 % 0.00 in
18:55 20.3 °F 11.1 °F 30.55 in NNE 1.0 mph 3.0 mph 67 % 0.00 in
19:00 20.3 °F 11.1 °F 30.55 in NNE 1.0 mph 3.0 mph 67 % 0.00 in
19:06 20.4 °F 12.0 °F 30.56 in Calm     69 % 0.00 in
19:10 20.4 °F 11.6 °F 30.56 in Calm   1.0 mph 68 % 0.00 in
19:15 20.4 °F 11.6 °F 30.56 in Calm   1.0 mph 68 % 0.00 in
19:20 20.4 °F 11.6 °F 30.56 in Calm   1.0 mph 68 % 0.00 in
19:21 20.2 °F 12.0 °F 30.57 in Calm   2.0 mph 69 % 0.00 in
19:25 20.3 °F 11.5 °F 30.57 in Calm   2.0 mph 68 % 0.00 in
19:30 20.3 °F 11.5 °F 30.57 in Calm   2.0 mph 68 % 0.00 in
19:35 20.3 °F 11.5 °F 30.57 in Calm   2.0 mph 68 % 0.00 in
19:36 19.9 °F 12.0 °F 30.57 in Calm     70 % 0.00 in
19:40 20.1 °F 11.6 °F 30.57 in Calm   2.0 mph 69 % 0.00 in
19:45 20.1 °F 11.6 °F 30.57 in Calm   2.0 mph 69 % 0.00 in
19:50 20.1 °F 11.6 °F 30.57 in Calm   2.0 mph 69 % 0.00 in
19:51 19.6 °F 11.0 °F 30.59 in Calm     70 % 0.00 in
19:55 19.8 °F 11.3 °F 30.58 in Calm     69 % 0.00 in
20:00 19.8 °F 11.3 °F 30.58 in Calm     69 % 0.00 in
20:05 19.8 °F 11.3 °F 30.58 in Calm     69 % 0.00 in
20:06 19.2 °F 11.0 °F 30.59 in Calm     71 % 0.00 in
20:10 19.6 °F 11.1 °F 30.59 in Calm     69 % 0.00 in
20:15 19.6 °F 11.1 °F 30.59 in Calm     69 % 0.00 in
20:20 19.6 °F 11.1 °F 30.59 in Calm     69 % 0.00 in
20:21 18.8 °F 11.0 °F 30.60 in Calm     72 % 0.00 in
20:25 19.2 °F 11.1 °F 30.59 in Calm     70 % 0.00 in
20:30 19.2 °F 11.1 °F 30.59 in Calm     70 % 0.00 in
20:35 19.2 °F 11.1 °F 30.59 in Calm     70 % 0.00 in
20:36 18.4 °F 11.0 °F 30.60 in Calm     73 % 0.00 in
20:40 18.8 °F 11.0 °F 30.61 in Calm     71 % 0.00 in
20:45 18.8 °F 11.0 °F 30.61 in Calm     71 % 0.00 in
20:50 18.8 °F 11.0 °F 30.61 in Calm     71 % 0.00 in
20:51 18.2 °F 11.0 °F 30.62 in Calm     74 % 0.00 in
20:55 18.4 °F 11.2 °F 30.62 in Calm     73 % 0.00 in
21:00 18.4 °F 11.2 °F 30.62 in Calm     73 % 0.00 in
21:05 18.4 °F 11.2 °F 30.62 in Calm     73 % 0.00 in
21:06 18.0 °F 11.0 °F 30.63 in Calm     75 % 0.00 in
21:10 18.2 °F 11.0 °F 30.63 in Calm     73 % 0.00 in
21:15 18.2 °F 11.0 °F 30.63 in Calm     73 % 0.00 in
21:20 18.2 °F 11.0 °F 30.63 in Calm     73 % 0.00 in
21:21 17.9 °F 12.0 °F 30.63 in Calm     76 % 0.00 in
21:25 18.0 °F 11.4 °F 30.63 in Calm     75 % 0.00 in
21:30 18.0 °F 11.4 °F 30.63 in Calm     75 % 0.00 in
21:35 18.0 °F 11.4 °F 30.63 in Calm     75 % 0.00 in
21:36 17.7 °F 12.0 °F 30.63 in Calm     77 % 0.00 in
21:40 17.8 °F 11.5 °F 30.64 in Calm     76 % 0.00 in
21:45 17.8 °F 11.5 °F 30.64 in Calm     76 % 0.00 in
21:50 17.8 °F 11.5 °F 30.64 in Calm     76 % 0.00 in
21:51 17.4 °F 11.0 °F 30.64 in Calm     77 % 0.00 in
21:55 17.7 °F 11.4 °F 30.64 in Calm     76 % 0.00 in
22:00 17.7 °F 11.4 °F 30.64 in Calm     76 % 0.00 in
22:05 17.7 °F 11.4 °F 30.64 in Calm     76 % 0.00 in
22:06 17.2 °F 12.0 °F 30.63 in Calm   5.0 mph 79 % 0.00 in
22:10 17.4 °F 11.4 °F 30.63 in Calm   2.0 mph 77 % 0.00 in
22:15 17.4 °F 11.4 °F 30.63 in Calm   2.0 mph 77 % 0.00 in
22:20 17.4 °F 11.4 °F 30.63 in Calm   2.0 mph 77 % 0.00 in
22:21 17.5 °F 12.0 °F 30.63 in East 2.0 mph 8.0 mph 79 % 0.00 in
22:25 17.2 °F 11.5 °F 30.63 in WNW 1.0 mph 8.0 mph 78 % 0.00 in
22:30 17.2 °F 11.5 °F 30.63 in WNW 1.0 mph 8.0 mph 78 % 0.00 in
22:35 17.2 °F 11.5 °F 30.63 in WNW 1.0 mph 8.0 mph 78 % 0.00 in
22:36 17.8 °F 12.0 °F 30.64 in Calm   4.0 mph 78 % 0.00 in
22:40 17.6 °F 11.9 °F 30.64 in North 2.0 mph 8.0 mph 78 % 0.00 in
22:45 17.6 °F 11.9 °F 30.64 in North 2.0 mph 8.0 mph 78 % 0.00 in
22:50 17.6 °F 11.9 °F 30.64 in North 2.0 mph 8.0 mph 78 % 0.00 in
22:51 17.6 °F 12.0 °F 30.64 in North 3.0 mph 7.0 mph 77 % 0.00 in
22:55 17.7 °F 11.4 °F 30.64 in NNW 2.0 mph 9.0 mph 76 % 0.00 in
23:00 17.7 °F 11.4 °F 30.64 in NNW 2.0 mph 9.0 mph 76 % 0.00 in
23:05 17.7 °F 11.4 °F 30.64 in NNW 2.0 mph 9.0 mph 76 % 0.00 in
23:06 17.2 °F 11.0 °F 30.65 in NE 6.0 mph 9.0 mph 77 % 0.00 in
23:10 17.6 °F 11.6 °F 30.65 in NNE 3.0 mph 7.0 mph 77 % 0.00 in
23:15 17.6 °F 11.6 °F 30.65 in NNE 3.0 mph 7.0 mph 77 % 0.00 in
23:20 17.6 °F 11.6 °F 30.65 in NNE 3.0 mph 7.0 mph 77 % 0.00 in
23:21 16.5 °F 10.0 °F 30.66 in North 5.0 mph 5.0 mph 76 % 0.00 in
23:25 17.1 °F 10.6 °F 30.66 in ENE 3.0 mph 9.0 mph 75 % 0.00 in
23:30 17.1 °F 10.6 °F 30.66 in ENE 3.0 mph 9.0 mph 75 % 0.00 in
23:35 17.1 °F 10.6 °F 30.66 in ENE 3.0 mph 9.0 mph 75 % 0.00 in
23:36 16.0 °F 9.0 °F 30.66 in NNE 3.0 mph 6.0 mph 75 % 0.00 in
23:40 16.5 °F 10.0 °F 30.66 in NNE 2.0 mph 8.0 mph 75 % 0.00 in
23:45 16.5 °F 10.0 °F 30.66 in NNE 2.0 mph 8.0 mph 75 % 0.00 in
23:50 16.5 °F 10.0 °F 30.66 in NNE 2.0 mph 8.0 mph 75 % 0.00 in
23:51 15.6 °F 9.0 °F 30.66 in North 1.0 mph 9.0 mph 75 % 0.00 in
23:55 16.0 °F 9.2 °F 30.67 in NNE 3.0 mph 9.0 mph 74 % 0.00 in
Des Moines Weather and Climate
Compliments of Weather Underground - 4.5 mb

Script developed by  Jim McMurry - jmcmurry@mwt.net Adapted for the template by  Wim van der Kuil - Leuven-Template.eu

You find our weather info also at:

Weather Underground

Equipment we use:

Weather-station
Davis VP2 Plus

Weather-program
Davis Weatherlink.Com

Weather-server
iMac (Retina 4K, 21.5-inch, Late 2015)

Provider
Hostmonster.com

Davis VP2 Plus

Davis Weatherlink.Com

iMac (Retina 4K, 21.5-inch, Late 2015)

Hostmonster.com